Terminal Aerodrome Forecast
Issued by NWS Portland, OR

Home | Current Version | Previous Version | Text Only | Print | Product List | Glossary On
Versions: 1 2 3 4 5 6 7 8 9 10 11 12 13 14 15 16 17 18 19 20 21 22 23 24 25 26 27 28 29 30 31 32 33 34 35 36 37 38 39 40 41 42 43 44 45 46 47 48 49 50
000
FTUS46 KPQR 200625 AAA
TAFPDX
TAF AMD
KPDX 200625Z 2006/2106 32007KT P6SM BKN060
     FM201200 30003KT P6SM BKN025 OVC050
     FM201900 29004KT P6SM SCT030 BKN050
     FM202200 30008KT P6SM SCT050=

USA.gov is the U.S. government's official web portal to all federal, state and local government web resources and services.